GFSWCAN_925_spd_021.txt.gz
Wind_Speed
25 25 24 23 23 24 24 22 21 20 19 18 18 16 14 13 11 9 10 10 10 3 10 16 22 17 13 11 10 2 5 4 5 3 3 3 4 4 6 6 4 4 4 6 4 3 4 3 5 7 7 6 7 7
23 23 23 23 24 24 24 23 21 20 20 18 16 15 14 14 12 10 10 10 8 6 5 26 31 32 28 25 12 4 4 3 2 4 4 2 3 2 4 3 6 3 3 5 9 3 1 8 7 7 9 11 8 10
21 22 23 23 24 25 23 23 23 22 20 18 18 17 15 15 14 11 15 15 8 3 7 10 10 23 30 38 35 10 8 8 4 3 3 2 6 3 4 1 3 3 9 5 7 8 10 5 5 15 14 15 14 12
21 22 23 24 25 24 23 23 24 24 22 21 19 17 16 15 14 12 10 11 5 3 4 8 13 21 27 25 25 33 24 13 5 2 5 2 3 4 3 3 2 4 9 7 7 8 20 13 11 14 15 14 14 15
22 23 23 24 24 24 24 25 26 24 25 26 23 20 17 16 15 16 19 21 14 4 3 8 28 17 19 24 26 26 21 13 3 3 4 2 2 3 2 3 1 2 3 2 3 11 8 12 9 7 15 12 13 13
23 24 25 24 24 25 26 30 31 30 30 28 26 23 20 16 14 11 2 1 4 5 3 4 9 11 27 23 17 13 12 5 5 2 2 2 4 3 2 1 3 4 8 9 4 4 15 15 21 18 16 10 9 10
23 24 25 25 26 27 30 34 38 36 33 30 25 22 19 15 11 5 4 5 10 15 3 5 5 5 10 5 3 8 6 3 3 1 0 2 3 2 2 3 2 10 4 8 7 5 14 14 10 17 14 15 16 14
22 25 27 29 31 33 36 39 39 39 32 28 24 21 17 14 12 9 10 9 10 4 1 3 5 3 8 4 2 3 3 3 2 1 2 2 3 2 2 9 8 9 8 10 12 16 9 9 11 12 14 15 16 13
23 25 28 31 34 35 35 37 40 37 33 26 20 23 6 4 3 3 7 6 7 1 3 2 2 3 2 1 2 5 1 2 1 2 1 1 2 2 4 3 2 8 6 8 8 13 11 11 7 10 13 13 14 11
24 27 29 34 37 32 35 40 39 34 26 17 10 5 2 5 9 3 6 2 1 2 2 3 2 4 3 1 1 2 2 2 1 2 2 3 3 5 7 5 6 7 9 8 8 7 6 6 8 9 11 7 8 8
27 29 31 34 35 29 36 41 35 31 12 8 4 2 11 5 4 2 2 2 2 3 4 4 7 5 5 3 2 1 2 2 1 1 2 2 2 6 8 8 6 8 10 5 2 2 4 6 7 7 6 6 6 6
30 31 33 35 32 30 38 38 30 17 13 12 13 13 6 3 2 3 2 2 2 3 3 3 2 3 2 2 3 1 1 4 3 3 3 2 3 6 8 8 7 4 3 3 4 6 4 1 2 3 3 5 5 10
32 34 34 35 29 30 39 34 24 19 19 4 3 4 2 2 4 6 6 3 5 2 4 4 5 3 3 2 2 0 4 4 1 3 3 2 4 6 6 1 7 8 10 8 7 3 4 4 4 2 4 7 8 7
32 34 34 29 23 37 37 28 20 19 5 3 3 8 5 5 3 6 11 11 5 4 7 4 2 2 2 1 1 3 4 5 4 4 3 4 7 2 3 3 2 4 4 3 5 10 5 5 8 10 12 14 12 10
31 32 26 16 35 37 28 17 15 9 4 3 4 4 6 9 9 9 11 11 12 12 2 1 1 1 3 4 5 5 5 5 5 4 3 6 9 10 10 6 6 7 7 8 9 8 7 8 6 7 12 14 14 13
28 25 5 32 32 28 16 19 9 3 3 2 1 6 8 10 12 13 13 12 13 11 4 4 6 5 8 4 6 7 4 4 3 2 4 5 4 5 5 13 7 7 8 10 7 8 10 8 7 10 12 10 9 8
22 4 24 26 29 15 12 6 4 1 4 4 4 9 9 4 7 10 10 9 9 12 12 4 7 8 3 5 5 2 0 3 3 4 4 5 5 6 6 8 8 9 7 7 7 16 14 19 21 14 8 12 18 7
6 19 19 20 25 14 6 3 5 3 6 5 6 7 5 7 6 10 10 11 8 9 7 7 4 8 5 5 4 2 2 1 3 4 2 1 5 5 7 7 9 13 13 15 13 18 21 19 14 8 17 22 17 22
21 17 16 17 14 7 4 3 3 3 7 8 8 8 9 9 10 10 11 12 14 10 6 4 7 6 7 5 8 8 8 5 4 3 3 3 6 5 3 4 10 11 14 15 16 15 16 21 18 18 18 19 12 17
6 9 16 9 9 4 3 3 7 3 3 3 4 7 8 7 7 10 11 11 8 7 9 6 6 6 7 7 5 6 6 3 5 6 5 5 11 12 9 8 5 12 13 14 18 20 19 19 21 22 20 19 17 14
6 10 8 6 2 2 3 3 4 2 3 3 1 3 3 6 9 10 10 7 8 6 6 5 7 8 11 13 19 17 14 7 6 6 5 4 5 7 8 10 14 15 12 12 8 14 17 13 18 21 16 21 22 19
6 10 5 3 2 1 1 4 2 3 2 2 1 3 2 4 4 5 5 7 4 3 3 5 5 7 9 12 15 24 26 21 19 18 20 18 11 10 10 19 15 8 13 14 16 14 15 16 21 21 15 15 18 21
9 4 4 3 1 2 4 2 3 2 1 0 1 2 2 2 4 4 3 5 4 5 10 9 6 16 11 15 23 27 28 24 14 13 17 16 17 21 19 24 24 20 15 19 20 18 18 21 23 22 22 22 21 19
5 3 3 3 3 3 3 3 3 3 3 1 0 2 3 2 1 2 4 7 8 12 11 13 16 9 13 14 7 11 17 22 20 19 22 20 7 15 21 22 24 24 23 20 20 20 21 20 23 24 24 22 21 19
3 4 1 5 3 3 4 2 1 3 4 5 3 4 3 2 2 3 3 6 7 8 7 12 12 8 5 5 9 15 22 21 17 10 23 21 19 18 17 18 23 24 23 19 20 20 20 22 24 24 23 20 20 20
3 1 1 6 6 6 6 6 6 3 3 5 6 4 3 1 3 4 3 4 4 5 6 7 7 5 6 14 8 12 18 22 22 18 23 17 22 19 14 10 10 16 20 17 18 17 18 20 20 19 17 17 19 20
5 1 4 2 3 4 5 4 3 6 5 5 4 3 3 4 4 2 3 4 4 10 12 10 11 11 11 15 16 18 21 23 23 20 20 21 24 24 21 16 13 17 16 16 15 15 17 16 14 14 14 17 20 20
5 4 4 4 3 2 6 8 8 7 8 7 3 6 4 3 1 2 3 8 8 9 11 16 7 16 18 17 18 18 17 19 20 22 21 20 22 21 19 19 19 19 16 12 12 12 13 13 14 16 18 17 17 18
5 5 4 4 4 5 4 4 6 4 5 5 3 4 3 1 2 3 7 12 15 10 6 12 16 18 18 17 19 18 17 18 17 15 15 9 12 17 19 19 18 18 17 16 7 13 15 12 14 15 15 15 16 17
7 6 3 2 2 4 5 5 8 7 8 7 5 6 4 3 2 4 9 13 14 14 15 15 13 14 13 14 14 15 18 18 17 15 8 8 13 15 17 18 18 19 17 20 16 15 17 16 16 15 15 14 13 13
1 2 4 2 1 8 8 8 9 10 7 6 6 6 4 2 1 2 8 13 13 14 14 15 14 14 13 13 13 11 9 13 14 15 14 11 12 12 15 17 17 18 18 17 15 15 15 13 12 12 13 14 15 16
2 4 6 0 6 6 6 5 5 4 3 2 5 3 2 1 1 3 8 11 11 12 14 14 14 14 13 12 13 10 9 9 9 10 11 10 11 11 13 15 16 17 17 14 11 10 10 12 13 14 15 16 17 17
4 3 3 4 2 6 6 4 1 4 5 3 3 5 3 2 4 4 9 13 11 11 10 11 12 12 11 12 11 9 5 5 4 6 7 9 8 7 7 9 12 16 15 13 15 14 14 15 14 14 14 15 16 17

GFSWCAN_925_spd_024.txt.gz
Wind_Speed
22 22 23 23 24 25 25 23 23 23 22 20 18 18 17 15 13 10 11 10 10 4 9 17 14 13 10 5 7 4 5 1 2 4 4 4 4 4 3 6 7 4 4 3 2 6 7 25 18 8 7 3 8 5
22 22 23 23 24 24 23 23 24 25 24 21 20 20 18 16 14 11 8 8 11 3 6 23 24 28 23 24 7 4 4 3 2 2 1 4 3 3 2 4 10 7 5 6 6 5 11 19 9 8 7 9 4 7
21 23 24 24 24 24 25 25 26 26 26 23 22 21 19 18 16 13 14 15 11 3 7 7 9 22 23 32 34 8 6 6 5 3 1 3 7 3 4 5 4 7 4 3 5 2 12 19 19 13 11 12 9 9
22 23 25 25 24 25 26 26 27 30 31 27 25 24 21 19 17 15 15 16 10 3 4 6 10 17 21 21 25 38 24 2 3 2 3 3 4 6 1 3 4 2 6 4 2 5 11 12 17 9 9 13 15 13
24 25 25 26 27 29 30 33 35 36 35 33 27 25 23 20 18 18 23 21 18 4 3 7 24 15 10 12 21 25 23 16 3 3 3 4 3 5 2 4 2 2 2 5 3 4 3 5 13 10 12 13 11 12
26 26 27 29 30 32 35 36 36 37 37 36 30 25 21 16 12 9 3 6 10 10 3 4 5 6 15 11 6 8 12 7 5 4 4 3 4 3 3 1 3 4 3 1 6 4 3 3 17 18 16 16 14 13
26 27 29 31 33 36 40 38 37 41 41 35 31 22 18 12 8 5 5 3 13 3 2 4 4 5 9 5 0 2 6 3 4 3 2 3 3 2 3 2 6 7 4 12 10 6 7 14 7 15 17 15 13 13
26 28 30 34 36 39 42 38 41 46 42 36 28 21 16 13 10 11 23 18 23 4 2 3 4 3 4 4 4 3 3 3 1 2 2 2 4 2 2 8 9 7 14 13 12 8 2 3 11 15 16 18 17 14
29 31 33 35 38 41 41 39 44 45 42 25 22 16 2 5 4 4 7 4 12 3 2 2 2 3 5 1 1 2 2 2 1 2 1 2 3 2 5 7 7 12 8 10 12 10 8 12 11 12 17 16 10 10
32 33 34 36 38 40 40 39 43 41 33 22 8 2 2 3 6 4 2 1 1 2 3 3 2 3 2 1 2 1 0 2 0 2 3 2 3 6 10 8 9 12 12 12 12 9 9 7 7 7 6 7 3 6
33 34 35 36 38 40 34 39 38 36 16 10 6 2 10 4 2 1 1 3 3 3 3 3 5 3 2 2 2 0 2 3 2 2 2 4 5 7 9 11 8 9 9 9 8 7 5 2 3 7 8 7 5 6
33 34 35 36 35 32 35 37 34 25 17 14 16 13 6 3 3 2 1 1 3 3 3 3 4 5 2 1 3 2 2 1 3 1 2 3 4 10 11 11 12 11 10 7 4 3 3 1 1 3 2 1 1 3
32 33 33 33 30 27 36 35 29 21 22 4 3 3 3 4 6 5 6 3 6 3 3 3 0 2 3 2 2 2 2 3 2 3 2 3 4 5 7 5 4 5 6 5 4 4 8 3 11 5 5 6 5 7
30 31 32 29 21 34 35 31 22 19 4 2 4 8 4 6 5 4 10 8 8 4 5 2 2 1 1 2 2 5 5 4 4 5 7 7 7 3 1 4 3 3 4 2 5 7 10 8 8 14 15 13 12 9
28 29 25 14 31 33 27 20 21 8 2 3 5 6 5 6 6 11 11 10 12 10 3 2 3 3 5 5 5 5 5 5 5 5 6 8 10 8 6 3 6 9 8 9 6 7 7 9 9 9 12 12 17 16
26 20 6 23 29 22 17 19 7 3 2 2 1 3 7 6 9 11 12 12 13 12 3 4 5 5 9 4 6 7 3 5 4 3 4 5 8 8 9 9 9 9 10 10 14 19 18 19 14 13 21 19 19 21
19 5 20 24 27 14 12 8 4 2 3 5 4 3 3 3 5 8 10 9 7 10 11 4 7 8 3 4 5 4 6 6 5 4 4 4 4 2 4 7 8 11 12 18 19 21 21 24 27 24 14 20 22 24
7 19 17 20 26 14 9 5 3 3 5 3 4 7 5 3 6 7 11 13 7 7 5 5 4 8 6 5 6 2 3 3 3 4 5 5 6 7 10 7 13 16 16 18 20 21 24 23 16 11 21 21 22 22
19 15 15 20 17 7 4 5 4 3 3 2 2 3 3 3 5 10 10 12 14 9 4 4 7 5 5 4 4 4 4 3 3 3 4 7 12 9 13 14 16 17 17 16 17 15 20 25 21 21 22 25 17 21
9 9 17 15 9 5 5 5 7 4 3 2 2 4 4 4 5 7 9 10 6 5 9 5 5 2 3 3 2 2 3 4 5 8 8 10 17 14 8 10 10 18 20 21 23 25 22 22 28 27 24 26 21 18
6 12 11 8 3 2 1 1 3 2 1 1 2 2 3 3 6 7 7 5 7 6 4 3 2 2 4 7 17 19 15 11 5 3 2 5 14 21 21 22 24 23 18 15 12 16 23 19 25 28 26 23 22 25
5 9 5 3 2 3 1 2 3 2 2 2 1 2 2 3 3 3 3 8 7 4 4 4 3 3 7 9 12 19 19 23 22 24 26 18 7 8 13 18 19 13 17 18 20 16 20 24 27 29 26 20 20 21
7 5 3 2 2 3 5 1 0 2 1 2 3 4 3 3 2 4 4 4 3 4 10 8 12 14 9 19 25 25 26 23 17 19 20 16 20 19 19 21 21 18 15 19 21 21 21 26 27 24 23 23 20 12
3 2 3 2 2 3 2 2 2 1 1 2 4 3 2 2 4 3 3 2 3 10 8 13 16 6 11 13 5 13 18 21 19 23 25 14 12 15 19 19 21 23 20 22 22 22 23 23 24 25 25 21 21 22
3 2 3 4 2 5 3 4 2 4 3 2 3 2 1 2 2 3 1 3 4 4 4 13 13 8 3 4 9 17 25 23 16 13 22 21 17 17 19 22 25 24 20 23 20 20 21 22 22 21 20 20 17 17
4 3 3 3 2 3 4 4 3 2 1 2 3 3 2 2 3 2 2 2 3 2 4 4 4 4 5 11 5 11 17 20 25 17 18 22 22 16 10 5 9 17 19 18 15 18 18 18 21 20 20 21 22 18
3 3 2 1 1 1 3 3 3 4 5 5 3 2 3 3 3 3 3 5 2 7 15 13 12 13 9 13 18 17 20 24 21 17 16 20 24 24 22 17 14 18 16 13 11 14 14 14 16 17 16 20 21 19
3 1 2 1 2 3 3 4 4 4 3 4 3 5 2 2 3 3 3 9 11 10 8 19 18 18 18 18 17 16 17 18 21 16 13 16 18 21 21 20 20 19 22 10 12 12 11 14 15 16 16 16 15 15
3 3 3 4 3 1 2 2 2 1 2 1 3 2 3 2 3 3 5 9 15 14 10 11 13 15 18 20 18 16 16 19 18 7 7 4 8 18 21 20 21 23 24 16 16 17 14 14 13 13 12 12 14 15
4 5 4 3 3 3 3 4 3 2 2 4 5 2 1 2 5 5 5 9 12 13 15 14 12 14 14 17 16 16 14 15 16 11 3 4 8 15 19 19 20 20 20 17 11 13 12 11 12 13 13 15 17 17
4 5 3 3 2 3 5 7 11 7 4 2 2 3 4 3 3 2 9 13 15 15 15 14 15 14 14 12 8 13 8 8 10 12 9 8 8 10 14 15 15 16 17 18 9 10 11 12 15 15 15 16 16 17
3 3 2 3 2 3 4 4 5 4 3 3 2 2 1 2 2 2 4 12 13 12 12 13 12 11 11 9 8 6 6 8 7 7 7 6 7 8 9 13 14 17 18 19 18 15 15 13 13 14 13 14 15 18
2 1 1 3 3 4 4 4 4 2 2 3 3 4 5 5 2 3 6 6 12 11 11 12 12 12 10 9 9 3 3 1 4 3 4 5 5 6 6 7 12 13 15 14 15 15 15 13 12 12 12 13 15 17

GFSWCAN_925_spd_030.txt.gz
Wind_Speed
22 24 25 26 26 28 29 30 30 30 30 30 28 26 25 24 20 13 11 13 9 3 8 12 13 11 9 5 4 2 4 2 1 1 2 3 4 3 4 5 5 8 8 5 7 6 18 2 5 3 4 8 12 17
24 26 27 29 29 30 32 33 33 34 33 32 29 27 26 25 24 18 10 12 15 5 7 22 28 30 28 25 8 4 3 2 1 1 2 2 3 2 4 4 3 8 9 4 10 7 6 4 8 7 7 11 10 16
27 28 29 29 31 32 34 36 37 37 37 35 31 28 27 25 23 20 17 16 8 3 6 6 9 20 24 33 30 6 4 5 4 5 3 3 7 3 4 5 4 6 5 6 9 9 9 7 4 4 7 6 11 11
27 29 29 31 32 34 38 39 40 41 40 37 34 28 27 24 21 18 18 16 10 1 3 6 6 11 11 15 27 35 19 4 3 4 4 4 3 4 3 5 5 7 9 7 8 17 3 5 2 3 7 6 7 3
28 30 31 33 36 38 40 42 42 43 42 37 40 29 25 21 19 16 18 19 20 6 3 7 21 8 7 19 20 24 21 13 5 3 3 3 3 3 4 6 11 6 10 6 9 9 5 2 3 4 4 3 7 5
31 33 35 36 37 39 41 43 43 44 40 43 41 33 26 15 10 4 3 3 11 16 2 3 5 4 3 10 14 11 10 6 4 3 3 3 2 3 4 6 11 12 13 15 16 9 4 5 0 2 3 6 6 6
33 35 37 37 36 38 41 41 43 42 42 46 42 31 19 11 13 5 4 3 12 17 1 3 3 4 5 4 3 3 10 4 4 3 4 4 6 7 4 13 28 17 20 17 12 13 4 2 3 2 1 7 5 8
34 35 37 37 37 37 39 41 40 39 46 46 32 18 9 8 9 10 17 9 18 4 1 2 4 4 3 2 1 4 4 3 4 3 3 4 2 4 5 13 22 26 22 15 14 9 4 8 6 7 7 8 13 10
35 35 36 37 36 35 36 37 35 42 45 34 15 2 5 4 1 1 5 16 12 3 1 1 3 3 5 3 2 2 3 3 3 3 3 3 2 4 13 18 18 8 11 7 12 11 10 10 12 12 14 15 14 12
34 34 34 34 34 33 33 31 38 41 37 15 3 2 2 4 3 15 3 2 2 1 1 2 2 3 2 2 2 3 1 2 2 2 3 2 3 14 11 13 13 9 12 15 14 9 10 13 10 13 14 13 8 2
32 32 32 31 32 31 26 33 37 37 12 7 6 2 7 4 4 1 2 2 1 2 2 3 3 3 2 2 2 2 3 3 2 3 5 4 6 11 11 10 13 15 16 16 16 11 8 10 8 10 9 7 4 4
29 29 29 30 27 23 30 35 33 21 10 11 11 7 4 3 1 2 3 1 2 2 4 3 3 4 3 2 2 2 2 2 3 5 4 5 10 16 20 20 20 18 16 17 16 9 8 9 9 7 6 5 6 5
27 27 26 20 24 27 29 31 23 15 6 2 1 1 3 4 6 7 9 4 5 4 1 3 2 2 2 1 2 2 4 4 3 4 5 6 14 17 19 19 22 22 23 19 14 14 14 14 19 13 10 11 16 16
26 25 14 22 27 26 25 24 22 11 4 4 5 7 5 5 6 3 7 6 6 5 7 2 1 2 2 3 3 5 4 4 5 5 10 11 13 14 16 15 15 15 16 17 17 18 19 19 19 26 22 18 20 15
24 14 16 27 28 21 20 20 21 12 5 4 5 7 5 5 4 6 6 4 7 6 3 3 3 2 3 4 4 5 6 5 5 6 8 8 11 9 10 12 14 17 18 16 13 12 14 18 14 17 24 24 24 26
18 8 20 29 23 18 21 15 14 9 5 4 7 5 7 4 12 12 10 9 10 7 2 3 5 5 7 4 6 8 4 7 6 6 6 4 10 10 9 9 8 10 13 12 17 20 21 17 13 15 26 26 26 27
8 8 22 25 21 15 22 11 7 5 4 5 4 2 3 3 4 5 7 9 9 8 4 4 7 7 4 5 7 6 5 5 8 8 6 8 7 8 8 13 12 16 15 18 20 21 18 19 25 25 16 21 27 27
4 18 18 20 18 10 8 12 4 5 5 3 3 6 4 2 6 7 8 10 6 4 4 4 4 8 5 6 5 4 3 5 3 6 6 7 9 11 14 10 16 17 18 20 19 20 23 22 17 11 15 16 23 25
16 15 17 17 13 5 4 6 6 3 2 1 3 3 2 3 4 7 9 13 12 6 3 3 6 3 2 2 3 5 4 4 3 4 6 14 17 15 15 17 19 20 20 20 19 16 17 19 15 15 15 20 17 17
6 7 14 11 11 4 3 3 3 4 2 2 0 3 2 0 4 4 8 8 5 3 7 5 3 2 2 3 3 3 4 4 2 2 6 7 15 16 17 15 14 15 17 19 22 23 19 20 23 21 20 20 20 17
4 7 6 9 5 6 3 1 3 1 2 2 1 1 0 2 3 5 4 4 5 3 3 2 2 2 5 4 7 3 5 9 4 2 2 3 11 14 15 17 16 17 15 13 12 14 18 13 14 17 20 21 21 22
5 9 4 4 3 4 3 2 2 1 2 1 2 2 2 2 3 3 2 4 3 2 1 1 2 2 3 4 6 11 9 14 16 15 16 13 5 5 7 12 12 11 14 15 16 14 16 16 13 16 21 20 23 25
6 5 3 4 2 4 2 2 2 2 2 1 2 3 3 2 1 1 3 2 2 3 3 1 3 4 4 7 11 16 15 11 11 12 13 12 14 14 15 14 13 12 10 15 15 15 15 16 16 19 21 23 23 22
4 3 3 2 2 2 3 3 2 2 2 2 2 2 2 2 2 3 1 2 3 5 4 1 2 2 4 6 5 7 11 7 8 12 11 9 8 11 12 13 11 10 9 11 14 15 17 19 20 20 19 19 18 17
3 5 3 4 1 4 4 6 4 2 2 1 2 1 1 2 2 2 1 3 2 3 2 1 2 3 2 2 3 4 6 7 6 5 13 10 9 11 13 12 13 13 10 11 10 13 15 16 14 13 12 11 12 12
3 2 2 1 1 2 2 3 3 3 2 2 2 1 1 2 2 1 2 2 2 3 3 3 4 2 0 2 1 2 3 3 4 7 9 10 10 8 6 5 6 10 9 6 3 7 8 10 11 11 10 8 7 8
1 1 1 0 2 1 1 1 1 2 2 2 0 1 1 2 1 3 3 4 3 5 8 7 6 7 8 6 4 5 7 6 3 5 9 11 12 13 12 10 9 10 6 3 4 5 7 7 7 7 8 8 7 6
3 3 2 1 0 1 1 1 1 1 2 2 2 1 3 3 3 3 4 2 5 3 2 2 2 7 10 7 4 4 7 9 7 1 2 8 11 13 14 14 14 9 8 8 8 7 5 5 6 7 8 9 9 9
3 3 3 1 2 2 3 4 4 3 4 3 4 3 3 3 3 4 3 2 6 9 8 7 7 9 8 7 5 4 5 8 8 4 3 2 6 11 15 14 12 9 3 6 5 4 5 6 7 7 8 8 8 8
3 4 2 2 3 5 4 5 3 2 2 3 3 1 1 2 3 5 5 8 12 13 11 8 11 11 8 7 4 3 1 2 3 2 1 2 3 8 11 13 14 11 4 3 4 7 7 7 6 7 8 9 10 8
4 3 1 3 4 2 2 3 3 4 3 2 1 3 3 2 2 4 8 10 8 9 10 8 9 10 9 9 8 6 6 5 2 1 1 2 4 6 8 9 11 11 10 8 6 5 4 5 5 5 6 8 9 10
4 6 4 3 3 2 1 2 3 2 2 2 2 1 0 1 2 3 6 11 10 11 9 8 9 7 7 5 9 10 9 5 6 2 2 4 6 6 5 6 8 8 7 7 6 5 5 5 5 5 7 9 9 10
1 2 2 2 1 2 2 3 3 1 1 2 3 4 4 4 5 2 4 12 10 9 11 10 6 3 2 4 7 7 5 6 6 6 6 8 9 10 8 3 3 7 6 6 7 7 6 7 7 8 10 11 10 11

GFSWCAN_925_spd_033.txt.gz
Wind_Speed
23 24 26 27 28 30 29 29 30 32 32 30 29 28 26 25 25 18 12 18 12 3 9 11 16 10 7 6 4 1 6 2 2 3 2 4 4 3 4 7 5 7 7 7 11 10 20 6 16 13 4 6 10 13
25 26 27 28 29 31 32 33 33 35 34 33 30 29 28 28 27 20 12 16 21 5 6 15 23 26 28 25 9 4 6 4 3 3 2 2 4 3 4 4 6 8 11 7 10 10 11 12 15 18 9 14 15 15
25 27 28 30 33 35 35 36 36 37 36 35 30 29 29 28 25 18 14 11 11 2 6 10 8 13 18 27 28 6 4 7 6 3 2 3 6 4 5 9 14 8 11 10 15 20 23 23 23 22 14 15 14 15
28 30 32 33 35 38 37 37 37 38 37 35 32 30 29 26 21 14 10 9 10 3 3 5 5 9 9 13 22 30 19 4 3 4 4 4 3 7 5 9 12 10 7 9 16 20 19 23 23 22 20 16 16 12
31 33 34 35 37 38 38 37 37 37 36 34 34 31 28 20 14 8 8 9 15 6 3 6 22 5 4 14 18 23 24 17 7 3 4 4 3 4 7 8 15 15 21 13 13 15 13 18 17 16 15 18 11 6
33 35 36 35 37 37 38 36 36 35 34 35 35 33 23 11 5 5 2 2 3 10 1 3 5 4 4 8 14 14 14 8 6 4 4 4 12 4 4 7 18 20 22 23 21 18 17 19 20 20 14 12 8 6
34 36 36 36 36 35 35 35 35 33 34 37 33 24 12 7 9 3 3 3 9 12 1 3 4 2 5 4 4 3 11 4 4 2 4 4 4 6 4 14 33 22 18 20 16 14 20 23 14 12 11 11 2 11
35 36 36 35 33 32 33 33 33 31 38 34 22 8 13 12 7 0 6 3 15 4 0 2 4 4 1 3 3 5 4 3 4 3 3 4 3 3 6 17 22 23 26 24 20 22 24 21 9 11 4 7 7 9
35 34 33 31 30 31 32 30 29 37 35 21 6 7 4 4 2 3 8 13 6 3 1 1 3 4 5 3 2 3 3 3 4 4 3 3 2 4 16 24 23 12 5 13 21 20 18 18 9 9 12 10 6 12
31 31 29 29 30 29 27 30 34 33 16 5 5 1 3 3 12 11 3 1 2 2 1 2 2 3 3 2 2 3 2 4 3 2 4 2 3 16 27 13 10 8 2 4 9 7 9 6 7 8 10 11 6 16
29 28 27 27 25 26 30 34 30 25 4 3 4 2 2 7 2 1 1 1 0 2 2 3 3 4 1 2 3 2 2 3 3 3 5 5 9 21 26 24 16 14 15 17 15 9 11 7 2 12 17 16 13 15
26 26 25 20 25 31 32 30 21 13 5 4 0 1 1 2 1 3 4 1 0 3 2 2 2 4 3 3 2 1 2 2 5 6 5 4 12 23 24 28 26 23 23 23 19 16 14 12 11 10 9 13 13 19
25 23 17 22 29 29 29 23 16 10 5 3 2 3 4 5 7 7 9 4 5 5 2 7 2 2 2 1 2 2 7 6 4 5 4 6 13 15 18 18 22 23 25 23 23 21 21 23 26 15 13 21 22 20
23 16 16 24 30 25 24 23 23 9 5 4 4 8 5 5 5 2 6 6 6 5 9 5 3 2 2 3 4 6 5 4 4 4 5 8 15 15 13 13 17 20 22 23 24 26 25 21 20 29 28 26 25 20
19 12 17 29 24 21 20 23 22 14 5 4 5 6 5 5 5 8 7 6 7 6 3 2 2 3 5 4 4 5 6 6 5 5 5 10 13 12 13 14 14 14 14 15 15 16 17 21 19 20 27 28 26 26
15 7 18 25 21 19 16 16 16 8 5 4 6 4 7 4 10 10 10 10 9 6 1 4 5 5 8 4 7 7 5 6 6 6 8 9 11 12 11 13 13 14 15 14 18 19 18 17 14 16 26 26 27 27
6 7 19 21 16 15 19 9 8 5 5 5 3 4 4 3 6 9 10 10 12 5 4 4 6 5 4 5 7 5 5 5 7 7 7 10 9 10 11 11 15 19 19 20 21 21 19 22 27 26 17 22 25 26
3 14 15 18 16 7 7 8 4 4 5 3 3 5 3 4 7 8 9 10 7 5 4 5 4 7 4 4 5 6 5 8 6 5 6 8 9 12 14 12 18 19 19 20 20 20 22 22 19 14 17 15 21 21
11 10 14 15 12 4 3 4 4 3 2 0 1 1 2 2 6 10 10 14 12 6 3 3 6 4 4 2 5 7 7 5 4 6 6 13 15 15 15 15 17 18 18 17 18 16 16 18 16 15 15 17 18 19
4 5 11 10 9 3 2 2 2 3 3 2 1 1 2 3 4 7 10 9 7 4 6 4 3 1 2 3 4 6 6 6 4 4 6 8 13 14 16 15 14 15 17 19 19 20 16 15 16 16 16 17 18 17
2 6 4 7 3 5 3 1 2 2 3 2 1 0 1 1 3 7 7 5 6 3 3 2 1 1 3 3 4 5 7 9 6 4 3 4 8 9 11 12 13 14 14 15 14 14 15 12 11 12 14 16 16 17
5 6 4 4 3 2 3 2 2 1 0 1 1 1 1 1 2 3 2 5 3 2 1 1 1 1 2 3 6 7 8 7 8 7 8 9 6 8 9 11 11 11 12 12 11 11 11 10 9 11 13 15 16 16
5 4 2 4 1 3 1 1 0 2 1 1 0 1 2 2 2 1 2 1 0 1 3 2 2 1 1 2 3 5 9 10 9 8 8 7 7 9 9 9 10 10 11 13 12 12 11 11 12 12 11 11 11 11
4 3 3 3 2 1 1 2 1 1 1 1 1 1 2 2 2 2 1 1 1 2 1 4 3 2 2 0 3 5 8 8 8 7 9 8 6 7 8 8 8 7 7 7 9 9 10 11 11 12 12 11 12 11
2 4 3 4 1 2 3 2 2 2 2 1 1 1 2 2 1 1 1 2 3 3 2 1 3 3 3 1 1 2 4 6 8 8 8 8 8 7 8 7 6 6 6 5 5 6 7 8 8 9 9 9 9 10
3 2 2 1 1 1 1 2 2 2 1 1 1 1 0 1 1 2 1 1 2 3 4 4 4 3 2 1 1 2 4 5 6 6 6 7 7 7 7 7 8 6 10 7 4 4 5 6 8 9 9 7 7 8
2 1 1 0 0 1 1 1 1 2 2 1 2 2 1 2 2 1 1 3 2 2 3 3 1 3 1 4 3 2 4 5 3 2 3 4 6 7 7 8 9 11 11 7 3 3 4 5 6 7 7 6 6 7
1 3 2 3 2 2 1 1 2 2 2 2 3 3 2 3 2 3 4 5 4 3 1 2 2 2 5 5 4 2 4 6 4 2 3 2 3 7 8 8 7 8 4 4 3 3 3 3 4 5 5 6 7 7
3 3 3 2 2 3 4 4 3 3 4 4 2 3 3 3 1 4 4 6 5 5 4 3 3 4 5 4 3 2 4 6 8 7 6 4 6 10 11 12 11 9 4 3 3 2 2 3 3 4 6 6 5 4
2 4 3 2 3 4 2 5 1 2 3 2 2 2 1 2 3 7 7 6 7 7 5 4 4 5 3 3 1 2 2 0 1 4 4 5 7 7 9 10 12 12 8 4 1 2 2 2 3 5 6 6 7 6
3 4 2 3 3 1 1 2 3 2 3 3 2 2 2 1 2 6 8 8 6 5 6 5 4 4 3 2 3 5 4 4 4 2 2 3 4 5 6 7 8 9 8 6 4 4 4 5 6 6 7 8 7 7
4 5 3 3 2 1 2 2 2 2 2 2 2 3 2 1 2 2 3 7 7 7 5 5 4 2 3 1 3 4 5 3 3 4 4 4 5 5 5 4 4 6 6 6 5 5 5 6 6 7 8 7 7 7
2 2 2 2 2 2 3 3 2 1 1 2 2 2 3 2 2 2 0 6 3 3 4 5 6 5 5 4 6 7 6 4 3 5 6 8 10 10 8 5 3 2 3 4 5 6 5 6 6 7 9 9 9 9

GFSWCAN_925_spd_036.txt.gz
Wind_Speed
24 26 26 28 29 30 29 31 32 32 32 31 31 29 28 27 25 21 12 17 16 4 9 16 16 11 8 8 8 4 6 3 5 5 4 4 7 3 7 12 6 10 11 12 15 18 24 10 11 13 8 11 9 11
25 27 29 30 33 33 32 32 33 33 33 32 30 30 28 27 26 19 10 20 21 5 6 16 20 23 22 20 9 3 7 8 2 3 2 3 5 4 9 10 8 14 13 11 12 12 10 9 10 12 15 16 17 18
28 30 32 33 34 34 33 33 34 34 33 31 30 29 27 25 21 15 6 13 10 2 7 12 6 6 14 21 22 9 5 8 11 8 3 3 7 9 10 11 16 18 17 14 17 20 24 22 18 21 18 20 20 20
31 32 34 34 35 36 34 33 34 34 32 30 29 28 27 23 17 10 5 12 7 3 3 2 1 6 10 12 17 21 18 2 5 3 3 4 6 8 9 13 14 13 13 17 21 22 23 23 20 21 24 22 25 24
32 34 35 36 36 36 34 33 33 30 29 28 30 28 25 16 8 2 3 9 15 4 2 6 20 1 4 9 15 18 20 15 8 3 5 4 4 6 11 14 19 18 24 18 20 20 18 19 17 20 24 25 21 20
34 36 36 36 36 34 32 31 29 29 28 28 28 24 15 5 3 4 2 1 6 10 2 3 5 3 2 4 12 15 15 9 6 3 4 4 8 3 4 7 20 19 23 25 23 26 26 24 22 20 19 20 24 22
35 36 35 33 32 30 29 28 27 25 27 26 19 10 5 7 5 3 3 1 5 6 1 3 4 2 3 3 3 4 6 2 1 1 3 3 2 6 4 14 31 22 21 23 25 23 25 26 21 21 20 24 25 22
35 34 33 31 29 28 26 25 27 28 25 16 4 13 14 9 5 4 7 3 11 2 1 3 4 3 2 3 2 3 3 2 3 2 3 3 2 2 5 18 25 28 27 23 25 27 25 23 19 17 18 22 22 17
34 32 30 27 26 24 24 29 30 24 18 2 13 8 3 4 3 3 7 10 5 3 2 2 3 3 6 3 1 3 3 3 3 2 2 3 2 3 20 23 17 13 10 8 5 21 20 21 20 20 21 24 15 14
32 29 27 24 21 23 29 29 23 20 4 11 6 4 3 3 9 8 0 1 2 2 1 2 2 3 3 3 2 3 2 2 2 2 2 2 6 15 30 26 21 19 11 5 12 14 17 19 16 17 19 4 4 9
28 25 23 20 23 27 29 22 20 5 5 1 1 3 3 9 2 2 2 3 2 2 2 2 3 4 0 3 3 1 1 2 4 5 7 6 11 23 27 30 24 21 21 22 18 13 9 11 7 2 10 7 11 10
24 21 17 21 25 31 22 19 14 4 2 2 7 6 4 4 1 4 5 3 2 4 2 3 2 3 3 2 3 2 3 1 6 7 5 6 13 20 23 25 30 23 25 24 22 16 23 22 6 6 11 15 15 19
20 16 17 23 30 25 19 18 16 6 11 3 1 2 3 4 7 6 8 4 7 7 5 9 6 2 2 3 3 4 8 6 3 5 4 7 16 19 18 17 20 27 29 28 28 28 30 29 34 25 19 25 29 28
18 13 16 25 28 21 21 23 21 6 2 4 5 7 5 5 7 4 9 8 7 9 11 8 7 3 3 2 3 5 3 5 6 4 6 10 18 19 17 16 14 19 20 23 24 24 24 21 20 30 31 30 28 23
15 10 15 23 22 19 17 22 22 8 5 4 5 6 6 5 5 7 8 7 8 8 8 5 2 6 6 4 6 6 5 5 5 4 7 12 17 16 15 16 18 18 17 16 16 16 17 21 19 21 27 26 28 30
13 5 12 21 17 18 14 12 12 9 4 4 6 5 7 7 10 10 10 10 10 7 4 3 5 4 8 4 7 7 5 5 4 6 8 10 14 15 14 15 15 18 18 17 21 23 24 25 22 19 25 26 28 28
5 4 15 18 16 10 15 4 6 5 5 4 4 6 6 6 10 10 10 10 12 9 5 4 6 4 3 4 4 3 6 8 7 6 6 9 11 11 12 15 19 22 21 24 25 27 27 26 28 26 18 23 25 24
1 9 12 15 13 6 6 7 4 4 4 3 5 5 6 7 9 10 10 10 8 6 7 5 4 8 5 5 6 8 8 8 6 6 6 7 10 12 13 14 18 21 22 22 22 22 24 23 19 16 19 18 19 19
13 10 11 13 10 3 2 3 3 3 3 1 1 3 3 6 8 11 9 12 11 8 2 3 5 6 6 6 8 8 8 8 8 6 5 8 11 13 14 15 16 17 17 17 19 16 16 18 18 18 16 16 17 18
6 6 10 8 5 1 2 3 1 2 1 2 1 1 3 4 6 7 8 9 8 7 6 4 7 6 6 7 7 7 7 9 8 7 5 6 10 10 13 14 15 17 17 17 14 18 14 14 15 15 16 17 16 17
5 5 5 5 2 3 2 0 2 3 1 2 1 3 2 1 5 6 8 7 7 7 6 4 4 5 5 6 8 11 11 11 7 6 7 6 7 7 9 12 13 12 14 14 13 14 14 12 11 12 14 14 13 13
3 7 2 2 1 1 2 2 2 2 2 2 1 2 3 3 4 4 3 5 5 4 4 3 3 4 3 5 7 9 10 11 8 7 6 6 6 7 8 11 13 12 12 14 13 12 13 13 13 12 11 10 11 13
5 4 1 1 1 2 1 1 2 1 2 2 1 2 1 2 3 2 2 2 2 3 4 3 2 2 4 3 4 6 10 12 10 9 9 10 7 7 10 10 9 9 9 11 11 11 10 9 10 11 9 10 11 11
5 2 2 2 1 1 2 1 1 1 1 1 2 2 2 3 1 1 2 2 3 1 2 3 4 5 6 7 3 6 9 12 13 11 9 11 9 8 7 7 8 8 8 6 8 8 9 9 9 10 10 10 9 9
1 3 1 3 1 2 1 1 1 2 2 1 2 0 1 2 1 0 3 2 2 3 3 2 2 3 5 4 3 5 5 11 12 10 9 11 10 9 8 8 7 7 8 9 6 6 8 9 10 11 10 12 11 9
2 1 1 1 1 2 2 2 2 2 3 1 0 1 2 2 2 1 2 1 1 2 4 5 6 5 1 2 5 6 7 9 11 10 8 8 9 10 10 8 8 8 10 7 7 6 6 8 8 8 7 4 5 9
1 2 2 0 2 1 2 2 2 3 3 2 1 2 2 2 2 2 3 3 2 1 1 0 4 6 5 3 1 2 4 7 8 7 5 6 7 8 9 9 9 10 10 7 6 8 10 8 8 8 8 7 7 8
1 3 3 4 3 3 3 3 3 3 2 2 2 3 2 2 2 3 3 7 6 4 5 4 3 2 3 3 1 1 3 2 2 2 4 2 3 7 9 8 7 7 5 5 8 10 7 7 7 8 9 9 9 9
3 3 3 5 5 4 4 3 3 2 2 3 3 3 2 1 2 1 3 4 3 5 6 6 5 4 3 2 1 2 4 4 5 5 5 4 6 9 10 9 9 8 6 4 2 4 6 8 10 10 9 8 7 5
2 4 3 3 3 3 2 3 4 2 3 4 2 1 1 1 0 2 5 8 7 5 3 3 5 3 1 3 4 2 2 3 3 5 5 5 7 7 8 9 9 8 7 6 6 1 1 5 4 6 7 8 7 6
1 3 3 4 3 3 3 1 2 3 3 4 3 5 5 1 2 1 2 2 3 4 6 5 3 1 2 3 6 7 6 2 2 1 3 5 5 7 9 9 8 9 8 7 7 7 8 8 7 7 7 8 7 7
3 4 3 4 4 1 2 3 2 3 2 3 3 2 2 2 1 3 3 1 3 5 3 2 0 5 4 4 5 5 4 5 2 3 3 5 7 9 9 8 6 6 7 7 6 6 6 6 6 7 8 9 9 9
3 4 4 4 3 2 2 3 2 3 3 2 1 0 1 2 3 3 3 3 2 2 3 3 6 6 5 5 6 6 5 4 2 1 3 4 4 5 6 7 6 6 6 6 6 7 6 6 6 6 7 8 8 8